Prescott, AZ

6:48 AM MST on February 13, 2016 (GMT -0700)
Love

Weather History for KPRC - February, 2012

Change the Weather History Date:

Saturday, February 11, 2012

  Actual Average Record
Temperature  
Mean Temperature 47 °F 41 °F  
Max Temperature 61 °F 54 °F 74 °F (2016)
Min Temperature 33 °F 28 °F 11 °F (1955)
Degree Days  
Heating Degree Days 18    
Month to date heating degree days  
Since 1 July heating degree days  
Cooling Degree Days 0    
Month to date cooling degree days  
Year to date cooling degree days  
Moisture  
Dew Point 19 °F    
Average Humidity 34    
Maximum Humidity 59    
Minimum Humidity 15    
Precipitation  
Precipitation 0.00 in 0.04 in 0.78 in (2005)
Month to date precipitation 0.47  
Year to date precipitation 1.59  
Sea Level Pressure  
Sea Level Pressure 29.87 in    
Wind  
Wind Speed 8 mph (South)    
Max Wind Speed 18 mph    
Max Gust Speed 32 mph    
Visibility 10 miles    
Events      
T = Trace of Precipitation, MM = Missing Value Source: NWS Daily Summary

Daily Weather History Graph

Daily Weather History Graph

Search for Another Location

Airport or City:

Trip Planner

Search our weather history database for the weather conditions in past years. The results will help you decide how hot, cold, wet, or windy it might be!

Date:

Astronomy

Feb. 11, 2012 Rise Set
Actual Time 7:19 AM MST 6:08 PM MST
Civil Twilight 6:53 AM MST 6:34 PM MST
Nautical Twilight 6:23 AM MST 7:04 PM MST
Astronomical Twilight 5:54 AM MST 7:33 PM MST
Moon 10:45 PM MST (2/11) 9:18 AM MST (2/11)
Length of Visible Light 11h 40m
Length of Day
10h 48m
Waning Gibbous, 81% of the Moon is Illuminated
Feb 11
Waning Gibbous
Feb 14
Last Quarter
Feb 21
New
Feb 29
First Quarter
Mar 8
Full

Hourly Weather History & Observations

Time (MST) Temp. Windchill Dew Point Humidity Pressure Visibility Wind Dir Wind Speed Gust Speed Precip Events Conditions
12:53 AM 39.0 °F 33.4 °F 19.0 °F 45% 30.00 in 10.0 mi South 8.1 mph - N/A   Clear
1:53 AM 37.0 °F 34.5 °F 18.0 °F 46% 30.00 in 10.0 mi South 3.5 mph - N/A   Clear
2:53 AM 37.0 °F 32.4 °F 19.9 °F 50% 29.99 in 10.0 mi South 5.8 mph - N/A   Clear
3:53 AM 37.0 °F 34.5 °F 19.9 °F 50% 29.96 in 10.0 mi South 3.5 mph - N/A   Clear
4:53 AM 33.1 °F - 19.9 °F 59% 29.97 in 10.0 mi Calm Calm - N/A   Clear
5:53 AM 35.1 °F 29.3 °F 21.0 °F 57% 29.98 in 10.0 mi South 6.9 mph - N/A   Clear
6:53 AM 36.0 °F 32.1 °F 21.0 °F 55% 29.98 in 10.0 mi WSW 4.6 mph - N/A   Clear
7:53 AM 37.0 °F 33.3 °F 21.9 °F 54% 29.97 in 10.0 mi South 4.6 mph - N/A   Clear
8:53 AM 43.0 °F 40.3 °F 23.0 °F 45% 29.96 in 10.0 mi SSE 4.6 mph - N/A   Clear
9:53 AM 52.0 °F - 23.0 °F 32% 29.93 in 10.0 mi SE 6.9 mph - N/A   Clear
10:53 AM 55.9 °F - 23.0 °F 28% 29.93 in 10.0 mi ESE 12.7 mph - N/A   Clear
11:53 AM 60.1 °F - 17.1 °F 19% 29.91 in 10.0 mi SSW 10.4 mph 25.3 mph N/A   Clear
12:53 PM 61.0 °F - 15.1 °F 17% 29.87 in 10.0 mi SSW 13.8 mph 21.9 mph N/A   Clear
1:53 PM 61.0 °F - 12.9 °F 15% 29.83 in 10.0 mi South 15.0 mph 24.2 mph N/A   Clear
2:53 PM 61.0 °F - 17.1 °F 18% 29.80 in 10.0 mi South 15.0 mph 24.2 mph N/A   Clear
3:53 PM 60.1 °F - 18.0 °F 20% 29.78 in 10.0 mi South 13.8 mph 21.9 mph N/A   Clear
4:53 PM 59.0 °F - 15.1 °F 18% 29.78 in 10.0 mi South 18.4 mph 32.2 mph N/A   Clear
5:53 PM 55.9 °F - 16.0 °F 21% 29.78 in 10.0 mi SSW 15.0 mph 27.6 mph N/A   Clear
6:53 PM 53.1 °F - 18.0 °F 25% 29.78 in 10.0 mi South 8.1 mph - N/A   Clear
7:53 PM 48.9 °F - 18.0 °F 29% 29.79 in 10.0 mi SE 6.9 mph - N/A   Clear
8:53 PM 46.9 °F - 19.0 °F 33% 29.77 in 10.0 mi SSE 6.9 mph - N/A   Clear
9:53 PM 50.0 °F - 21.0 °F 32% 29.73 in 10.0 mi SE 8.1 mph - N/A   Clear
10:53 PM 48.9 °F - 19.9 °F 32% 29.72 in 10.0 mi SE 6.9 mph - N/A   Clear
11:53 PM 46.0 °F 44.8 °F 21.0 °F 37% 29.70 in 10.0 mi South 3.5 mph - N/A   Clear